Simultaneous Nadir Overpasses (SNOs) Predictions

Prediction of SNOs between GOES-16 and AQUA Satellite Orbit:

Table of predicted SNOs for the next 14.0 days since TLE Epoch: 3/7/2020
Index Date Time (GOES-16) GOES-16 Lat,Lon AQUA Lat,Lon Distance(km) Time Diff (sec)
1 03/07/2020 18:23:25 -0.04, -75.19 0.71, -71.68 398.97 80
2 03/08/2020 06:44:41 0.04, -75.19 0.37, -76.84 187.53 80
3 03/10/2020 06:29:48 0.04, -75.18 -0.21, -73.87 148.76 80
4 03/10/2020 18:51:12 -0.03, -75.18 -0.85, -79.06 441.49 80
5 03/12/2020 06:17:36 0.03, -75.18 -0.87, -70.91 485.64 80
6 03/12/2020 18:38:59 -0.04, -75.18 -0.26, -76.09 104.40 80
7 03/14/2020 18:29:27 -0.04, -75.19 0.41, -73.14 233.28 80
8 03/15/2020 06:50:43 0.04, -75.19 0.68, -78.30 352.51 80
9 03/17/2020 06:38:30 0.04, -75.20 0.07, -75.33 14.34 80
10 03/19/2020 06:23:37 0.05, -75.22 -0.54, -72.36 324.52 80
11 03/19/2020 18:45:01 -0.04, -75.22 -0.51, -77.56 265.24 80




NCC Satellite Simultaneous Nadir Overpasses (SNOs) Prediction Service
